Location: Alpha Ridge Park
(39.3209°N, 76.9128°W)
Time: 11:39:05
(UTC-04:00)

SR - All Passes

Search period start: 23 May 2019 00:00
Search period end: 02 June 2019 00:00
Orbit: 583 x 873 km, 66.7° (Epoch: 22 May)

Date Brightness Start Highest point End Pass type
(mag) Time Alt. Az. Time Alt. Az. Time Alt. Az.
23 May - 11:54:31 10° SSW 11:58:53 83° WNW 12:03:08 10° NNE daylight
23 May - 20:35:19 10° NNW 20:39:51 52° ENE 20:44:46 10° SE daylight
23 May - 22:18:27 10° WNW 22:21:34 17° WSW 22:24:48 10° SSW visible
24 May - 11:05:16 10° S 11:09:21 40° ESE 11:13:21 10° NE daylight
24 May - 12:48:25 10° W 12:51:31 19° NW 12:54:36 10° N daylight
24 May - 19:46:11 10° N 19:50:06 26° NE 19:54:14 10° ESE daylight
24 May - 21:27:50 10° NW 21:32:09 36° WSW 21:36:48 10° S visible
25 May - 10:17:03 10° SSE 10:19:59 18° ESE 10:22:51 10° ENE daylight
25 May - 11:57:37 10° SW 12:01:40 39° NW 12:05:40 10° NNE daylight
25 May - 18:57:41 10° NNE 19:00:09 14° NE 19:02:41 10° ENE daylight
25 May - 20:37:57 10° NNW 20:42:38 79° WSW 20:47:43 10° SSE daylight
26 May - 11:07:40 10° SSW 11:12:01 90° WNW 11:16:17 10° NNE daylight
26 May - 12:53:58 10° NW 12:54:40 10° NW 12:55:21 10° NNW daylight
26 May - 19:48:28 10° NNW 19:53:00 49° ENE 19:57:53 10° SE daylight
26 May - 21:31:25 10° WNW 21:34:44 19° WSW 21:38:13 10° SSW visible
27 May - 10:18:29 10° S 10:22:30 37° ESE 10:26:27 10° NE daylight
27 May - 12:01:25 10° W 12:04:37 20° NW 12:07:49 10° N daylight
27 May - 18:59:22 10° N 19:03:13 25° NE 19:07:18 10° ESE daylight
27 May - 20:40:54 10° NW 20:45:19 39° WSW 20:50:04 10° S daylight
28 May - 09:30:25 10° SSE 09:33:08 16° ESE 09:35:49 10° ENE daylight
28 May - 11:10:43 10° SW 11:14:48 41° WNW 11:18:50 10° NNE daylight
28 May - 18:10:56 10° NNE 18:13:15 13° NE 18:15:37 10° ENE daylight
28 May - 19:51:04 10° NNW 19:55:47 85° WSW 20:00:55 10° SSE daylight
29 May - 10:20:49 10° SSW 10:25:09 84° ESE 10:29:25 10° NNE daylight
29 May - 12:06:34 10° WNW 12:07:45 11° NW 12:08:58 10° NNW daylight
29 May - 19:01:37 10° NNW 19:06:09 46° ENE 19:11:01 10° SE daylight
29 May - 20:44:25 10° WNW 20:47:55 20° WSW 20:51:35 10° SSW daylight
30 May - 09:31:43 10° S 09:35:39 35° ESE 09:39:31 10° NE daylight
30 May - 11:14:25 10° WSW 11:17:44 21° NW 11:21:02 10° N daylight
30 May - 18:12:33 10° N 18:16:20 24° NE 18:20:21 10° ESE daylight
30 May - 19:53:59 10° NW 19:58:29 42° WSW 20:03:20 10° S daylight
31 May - 08:43:49 10° SE 08:46:18 15° ESE 08:48:47 10° ENE daylight
31 May - 10:23:48 10° SW 10:27:55 44° WNW 10:32:00 10° NNE daylight
31 May - 17:24:13 10° NNE 17:26:21 13° NE 17:28:32 10° ENE daylight
31 May - 19:04:11 10° NNW 19:08:56 90° WSW 19:14:06 10° SSE daylight
01 Jun - 09:33:58 10° SSW 09:38:17 78° ESE 09:42:31 10° NNE daylight
01 Jun - 11:19:18 10° WNW 11:20:50 12° NW 11:22:24 10° NNW daylight
01 Jun - 18:14:46 10° NNW 18:19:17 43° ENE 18:24:09 10° SE daylight
01 Jun - 19:57:25 10° WNW 20:01:05 22° WSW 20:04:57 10° SSW daylight
